Content
SEND FEEDBACK

Daily
Averages
Monthly
Summary
Canada

RICHMOND NATURE PARK, BRITISH COLUMBIA


Home > North America > Canada > British Columbia
Elevation: 10 feet     Latitude: 49 10N     Longitude: 123 05W

WEATHER
 
SELECT A DAY
Number of Records: 194,349;   Date Range: 1/1/95 - 7/23/14
 
SHARE

PRINT THIS DATA

[ ← Previous Day ]
WEATHER ALMANAC - MAY 9, 2013
[ Next Day → ]
[ °C ]   °F
Weather ElementAverageHighLow
Temperature57.7 °F64.4 °F (1:00 pm)50 °F (4:00 am)
Dewpoint50.9 °F57.2 °F (2:00 pm)46.4 °F (4:00 am)
Humidity77.9 %88 % (1:00 am)64 % (5:00 pm)
Barometer30.18 in30.23 in (8:00 am)30.12 in (7:00 pm)
Wind Speed6.7 mph9.2 mph (3:00 am)
Weather ElementAverage
Visibility22.7 mi
Wind DirectionSSE (167.7 °)

Weather ElementTotal
Precipitation---
Heating Degree Days7.8 (Base 65)
Growing Degree Days7.2 (Base 50)
Averaged from 26 records on May 9, 2013
WEATHER CONDITIONS BREAKOUT
WIND DIRECTION BREAKOUT
WEATHER BY HOUR - MAY 9, 2013
[ °C ]   °F
Local TimeTemperatureDewpointHumidityBarometerVisibilityWind DirectionWind SpeedGust SpeedPrecipitationEventsConditions
1:00 AM51.8 °F48.2 °F88 %30.15 in20.0 miEast (100°)6.9 mphClear
2:00 AM51.8 °F48.2 °F88 %30.17 in20.0 miESE (110°)6.9 mphClear
3:00 AM51.8 °F48.2 °F88 %30.18 in20.0 miEast (100°)9.2 mphClear
4:00 AM50.0 °F46.4 °F87 %30.19 in20.0 miEast (100°)8.1 mphClear
5:00 AM51.0 °F47.0 °F80 %30.19 in19.0 miEast (100°)6.9 mph
5:00 AM50.0 °F46.4 °F87 %30.19 in20.0 miEast (100°)8.1 mphClear
6:00 AM50.0 °F46.4 °F87 %30.20 in20.0 miESE (110°)6.9 mphClear
7:00 AM53.6 °F48.2 °F82 %30.22 in20.0 miESE (110°)8.1 mphClear
8:00 AM55.4 °F50.0 °F82 %30.23 in20.0 miNNE (20°)3.5 mphClear
9:00 AM57.2 °F50.0 °F77 %30.23 in12.0 miSSE (150°)5.8 mphClear
10:00 AM60.8 °F50.0 °F68 %30.22 in15.0 miSW (220°)8.1 mphClear
11:00 AM60.0 °F53.0 °F72 %30.22 in15.0 miWSW (240°)8.1 mph
11:00 AM59.0 °F53.6 °F82 %30.22 in15.0 miWSW (240°)9.2 mphClear
12:00 PM60.8 °F53.6 °F77 %30.21 in15.0 miSW (230°)8.1 mphClear
1:00 PM64.4 °F55.4 °F73 %30.20 in20.0 miWSW (250°)6.9 mphClear
2:00 PM64.4 °F57.2 °F77 %30.19 in20.0 miWest (260°)8.1 mphClear
3:00 PM64.4 °F57.2 °F77 %30.18 in30.0 miWest (260°)6.9 mphClear
4:00 PM62.6 °F53.6 °F72 %30.16 in30.0 miWSW (250°)6.9 mphClear
5:00 PM64.4 °F51.8 °F64 %30.15 in30.0 miWSW (240°)4.6 mphClear
6:00 PM64.4 °F51.8 °F64 %30.14 in30.0 miSW (230°)4.6 mphClear
7:00 PM62.6 °F51.8 °F68 %30.12 in30.0 miSW (230°)4.6 mphClear
8:00 PM59.0 °F51.8 °F77 %30.12 in30.0 miSW (230°)3.5 mphClear
9:00 PM60.8 °F51.8 °F72 %30.13 in30.0 miSSE (160°)2.3 mphClear
10:00 PM57.2 °F51.8 °F82 %30.14 in30.0 miEast (100°)6.9 mphClear
11:00 PM56.0 °F51.0 °F77 %30.15 in28.0 miESE (110°)8.1 mph
11:00 PM57.2 °F50.0 °F77 %30.15 in30.0 miESE (110°)8.1 mphClear
Hourly data recorded from CYVR, located miles away from Richmond Nature Park, British Columbia







STORIES FROM OUR PARTNERS